This is the latest recevied weather packets stored in our database for station/object HB9KBJ-8. If no packets are shown the sender has not sent any weather packets the latest 10 day(s).
| Time | Temp. | Humidity | Pressure | Rain* | Wind** | Luminosity | Snow |
|---|---|---|---|---|---|---|---|
| 1777660047 | 17.78° C | 50% | 1022.8 hPa | 0 mm | - | 11 W/m² | - |
| 1777659747 | 18.33° C | 48% | 1022.7 hPa | 0 mm | - | 12 W/m² | - |
| 1777659441 | 18.33° C | 47% | 1022.7 hPa | 0 mm | - | 14 W/m² | - |
| 1777659144 | 18.89° C | 47% | 1022.7 hPa | 0 mm | - | 19 W/m² | - |
| 1777658839 | 19.44° C | 45% | 1022.7 hPa | 0 mm | - | 28 W/m² | - |
| 1777658546 | 19.44° C | 45% | 1022.7 hPa | 0 mm | - | 37 W/m² | - |
| 1777658243 | 20° C | 45% | 1022.7 hPa | 0 mm | - | 46 W/m² | - |
| 1777657954 | 20.56° C | 42% | 1022.6 hPa | 0 mm | - | 54 W/m² | - |
| 1777657649 | 21.11° C | 39% | 1022.7 hPa | 0 mm | - | 65 W/m² | - |
| 1777657346 | 21.11° C | 35% | 1022.6 hPa | 0 mm | - | 77 W/m² | - |
| 1777657040 | 21.11° C | 35% | 1022.5 hPa | 0 mm | - | 90 W/m² | - |
| 1777656736 | 21.11° C | 36% | 1022.6 hPa | 0 mm | - | 102 W/m² | - |
| 1777656452 | 21.11° C | 34% | 1022.6 hPa | 0 mm | - | 118 W/m² | - |
| 1777656136 | 21.11° C | 34% | 1022.5 hPa | 0 mm | - | 134 W/m² | - |
| 1777655838 | 21.11° C | 34% | 1022.5 hPa | 0 mm | - | 148 W/m² | - |
| 1777655546 | 21.11° C | 34% | 1022.5 hPa | 0 mm | - | 163 W/m² | - |
| 1777655236 | 21.67° C | 33% | 1022.5 hPa | 0 mm | - | 179 W/m² | - |
| 1777654949 | 21.67° C | 34% | 1022.5 hPa | 0 mm | - | 195 W/m² | - |
| 1777654340 | 21.67° C | 34% | 1022.6 hPa | 0 mm | - | 230 W/m² | - |
| 1777654035 | 21.67° C | 34% | 1022.6 hPa | 0 mm | - | 244 W/m² | - |
| 1777653750 | 21.67° C | 33% | 1022.6 hPa | 0 mm | - | 258 W/m² | - |
| 1777653446 | 21.67° C | 34% | 1022.7 hPa | 0 mm | - | 271 W/m² | - |
| 1777653141 | 21.67° C | 33% | 1022.7 hPa | 0 mm | - | 285 W/m² | - |
| 1777652841 | 21.67° C | 34% | 1022.7 hPa | 0 mm | - | 299 W/m² | - |
| 1777652241 | 21.67° C | 33% | 1022.8 hPa | 0 mm | - | 325 W/m² | - |
* Rain latest hour (hover to see other rain measurements)
** Current wind speed in m/s (hover to see current wind gust speed)